Time,TemperatureF,DewpointF,PressureIn,WindDirection,WindDirectionDegrees,WindSpeedMPH,WindSpeedGustMPH,Humidity,HourlyPrecipIn,Conditions,Clouds,dailyrainin,SoftwareType,DateUTC
2013-03-24 00:00:00,21.4,18.7,30.18,NW,309,7.0,8.4,89,0.00,,CLR,0.00,VWS V14.01,2013-03-24 05:00:00,
2013-03-24 00:10:00,21.3,18.6,30.18,NW,306,5.0,7.3,89,0.00,,CLR,0.00,VWS V14.01,2013-03-24 05:10:00,
2013-03-24 00:15:00,21.3,18.6,30.18,NW,315,5.0,8.4,89,0.00,,CLR,0.00,VWS V14.01,2013-03-24 05:15:00,
2013-03-24 00:20:00,21.2,18.5,30.18,NW,326,6.0,8.4,89,0.00,,CLR,0.00,VWS V14.01,2013-03-24 05:20:00,
2013-03-24 00:25:00,21.2,18.5,30.18,NW,319,5.0,8.4,89,0.00,,CLR,0.00,VWS V14.01,2013-03-24 05:25:00,
2013-03-24 00:30:00,21.1,18.4,30.18,NW,304,4.0,9.4,89,0.00,,CLR,0.00,VWS V14.01,2013-03-24 05:30:00,
2013-03-24 00:35:00,21.1,18.4,30.18,NW,304,4.0,4.2,89,0.00,,CLR,0.00,VWS V14.01,2013-03-24 05:35:00,
2013-03-24 00:40:00,20.9,18.2,30.18,NW,304,2.0,7.3,89,0.00,,CLR,0.00,VWS V14.01,2013-03-24 05:40:00,
2013-03-24 00:45:00,20.9,18.4,30.17,WNW,301,3.0,7.3,90,0.00,,CLR,0.00,VWS V14.01,2013-03-24 05:45:00,
2013-03-24 00:50:00,20.8,18.3,30.17,WNW,302,3.0,8.4,90,0.00,,CLR,0.00,VWS V14.01,2013-03-24 05:50:00,
2013-03-24 01:00:00,20.6,18.1,30.17,NW,309,3.0,5.2,90,0.00,,CLR,0.00,VWS V14.01,2013-03-24 06:00:00,
2013-03-24 01:05:00,20.5,18.0,30.17,WNW,298,3.0,4.2,90,0.00,,SCT037,0.00,VWS V14.01,2013-03-24 06:05:00,
2013-03-24 01:10:00,20.4,17.9,30.17,NW,304,2.0,3.1,90,0.00,,SCT037,0.00,VWS V14.01,2013-03-24 06:10:00,
2013-03-24 01:15:00,20.3,18.1,30.17,NW,307,3.0,4.2,91,0.00,,SCT037,0.00,VWS V14.01,2013-03-24 06:15:00,
2013-03-24 01:20:00,20.3,18.1,30.17,NW,317,3.0,5.2,91,0.00,,SCT037,0.00,VWS V14.01,2013-03-24 06:20:00,
2013-03-24 01:25:00,20.3,18.1,30.17,WNW,296,2.0,5.2,91,0.00,,BKN033,0.00,VWS V14.01,2013-03-24 06:25:00,
2013-03-24 01:35:00,20.4,18.2,30.17,NW,317,2.0,5.2,91,0.00,,BKN033,0.00,VWS V14.01,2013-03-24 06:35:00,
2013-03-24 01:40:00,20.3,18.1,30.17,NW,310,4.0,4.2,91,0.00,,BKN033,0.00,VWS V14.01,2013-03-24 06:40:00,
2013-03-24 01:50:00,20.3,18.1,30.17,NW,317,4.0,8.4,91,0.00,,OVC029,0.00,VWS V14.01,2013-03-24 06:50:00,
2013-03-24 01:55:00,20.2,18.0,30.17,NW,319,5.0,9.4,91,0.00,,OVC029,0.00,VWS V14.01,2013-03-24 06:55:00,
2013-03-24 02:00:00,20.1,17.9,30.17,NW,311,4.0,7.3,91,0.00,,OVC029,0.00,VWS V14.01,2013-03-24 07:00:00,
2013-03-24 02:05:00,20.0,17.8,30.17,NW,309,7.0,8.4,91,0.00,,BKN043,0.00,VWS V14.01,2013-03-24 07:05:00,
2013-03-24 02:10:00,19.9,17.7,30.17,WNW,302,4.0,7.3,91,0.00,,BKN043,0.00,VWS V14.01,2013-03-24 07:10:00,
2013-03-24 02:15:00,19.8,17.6,30.17,NW,312,3.0,7.3,91,0.00,,BKN043,0.00,VWS V14.01,2013-03-24 07:15:00,
2013-03-24 02:25:00,19.7,17.5,30.17,NW,311,3.0,8.4,91,0.00,,OVC043,0.00,VWS V14.01,2013-03-24 07:25:00,
2013-03-24 02:30:00,19.6,17.4,30.17,NW,309,2.0,5.2,91,0.00,,OVC043,0.00,VWS V14.01,2013-03-24 07:30:00,
2013-03-24 02:35:00,19.5,17.3,30.17,NW,309,0.0,5.2,91,0.00,,OVC043,0.00,VWS V14.01,2013-03-24 07:35:00,
2013-03-24 02:40:00,19.4,17.2,30.17,NW,315,4.0,4.2,91,0.00,,OVC043,0.00,VWS V14.01,2013-03-24 07:40:00,
2013-03-24 02:50:00,19.3,17.1,30.17,NW,319,4.0,5.2,91,0.00,,SCT034,0.00,VWS V14.01,2013-03-24 07:50:00,
2013-03-24 02:55:00,19.3,17.1,30.17,WNW,300,0.0,4.2,91,0.00,,SCT034,0.00,VWS V14.01,2013-03-24 07:55:00,
2013-03-24 03:00:00,19.3,17.1,30.17,NW,309,1.0,4.2,91,0.00,,SCT034,0.00,VWS V14.01,2013-03-24 08:00:00,
2013-03-24 03:05:00,19.3,17.4,30.17,NW,308,3.0,3.1,92,0.00,,CLR,0.00,VWS V14.01,2013-03-24 08:05:00,
2013-03-24 03:15:00,19.3,17.4,30.16,NW,308,0.0,1.0,92,0.00,,CLR,0.00,VWS V14.01,2013-03-24 08:15:00,
2013-03-24 03:20:00,19.3,17.4,30.16,NW,309,3.0,4.2,92,0.00,,CLR,0.00,VWS V14.01,2013-03-24 08:20:00,
2013-03-24 03:30:00,19.3,17.4,30.16,NW,311,0.0,3.1,92,0.00,,CLR,0.00,VWS V14.01,2013-03-24 08:30:00,
2013-03-24 03:40:00,19.3,17.4,30.15,NW,304,4.0,5.2,92,0.00,,CLR,0.00,VWS V14.01,2013-03-24 08:40:00,
2013-03-24 03:50:00,19.1,17.2,30.15,NW,306,5.0,8.4,92,0.00,,CLR,0.00,VWS V14.01,2013-03-24 08:50:00,
2013-03-24 03:55:00,19.1,17.2,30.15,NW,309,7.0,8.4,92,0.00,,CLR,0.00,VWS V14.01,2013-03-24 08:55:00,
2013-03-24 04:00:00,19.0,17.1,30.15,NW,318,3.0,8.4,92,0.00,,CLR,0.00,VWS V14.01,2013-03-24 09:00:00,
2013-03-24 04:05:00,19.0,17.1,30.15,NW,314,2.0,7.3,92,0.00,,CLR,0.00,VWS V14.01,2013-03-24 09:05:00,
2013-03-24 04:10:00,18.9,17.0,30.14,NW,313,1.0,5.2,92,0.00,,CLR,0.00,VWS V14.01,2013-03-24 09:10:00,
2013-03-24 04:15:00,18.9,17.0,30.14,NW,309,4.0,7.3,92,0.00,,CLR,0.00,VWS V14.01,2013-03-24 09:15:00,
2013-03-24 04:20:00,18.8,16.9,30.14,NW,306,3.0,5.2,92,0.00,,CLR,0.00,VWS V14.01,2013-03-24 09:20:00,
2013-03-24 04:30:00,18.7,16.8,30.14,NW,310,1.0,4.2,92,0.00,,SCT025,0.00,VWS V14.01,2013-03-24 09:30:00,
2013-03-24 04:40:00,18.6,16.7,30.14,NW,309,2.0,4.2,92,0.00,,SCT025,0.00,VWS V14.01,2013-03-24 09:40:00,
2013-03-24 04:45:00,18.5,16.6,30.14,NW,311,3.0,6.3,92,0.00,,SCT027,0.00,VWS V14.01,2013-03-24 09:45:00,
2013-03-24 04:50:00,18.5,16.6,30.14,NW,306,0.0,3.1,92,0.00,,SCT027,0.00,VWS V14.01,2013-03-24 09:50:00,
2013-03-24 05:00:00,18.5,16.8,30.14,NW,305,0.0,5.2,93,0.00,,SCT027,0.00,VWS V14.01,2013-03-24 10:00:00,
2013-03-24 05:10:00,18.5,16.6,30.14,NW,315,0.0,3.1,92,0.00,,OVC030,0.00,VWS V14.01,2013-03-24 10:10:00,
2013-03-24 05:15:00,18.5,16.6,30.14,NW,324,5.0,5.2,92,0.00,,OVC030,0.00,VWS V14.01,2013-03-24 10:15:00,
2013-03-24 05:20:00,18.5,16.6,30.14,NW,315,0.0,5.2,92,0.00,,OVC030,0.00,VWS V14.01,2013-03-24 10:20:00,
2013-03-24 05:25:00,18.5,16.8,30.14,NW,307,2.0,4.2,93,0.00,,,0.00,VWS V14.01,2013-03-24 10:25:00,
2013-03-24 05:35:00,18.5,16.6,30.14,NW,317,2.0,6.3,92,0.00,,,0.00,VWS V14.01,2013-03-24 10:35:00,
2013-03-24 05:45:00,18.5,16.6,30.14,WNW,302,0.0,5.2,92,0.00,,,0.00,VWS V14.01,2013-03-24 10:45:00,
2013-03-24 05:55:00,18.4,16.5,30.13,NW,306,0.0,5.2,92,0.00,,,0.00,VWS V14.01,2013-03-24 10:55:00,
2013-03-24 06:00:00,18.4,16.5,30.13,NW,313,2.0,6.3,92,0.00,,,0.00,VWS V14.01,2013-03-24 11:00:00,
2013-03-24 06:05:00,18.4,16.5,30.13,NW,313,3.0,6.3,92,0.00,,CLR,0.00,VWS V14.01,2013-03-24 11:05:00,
2013-03-24 06:10:00,18.3,16.4,30.13,NW,316,3.0,8.4,92,0.00,,CLR,0.00,VWS V14.01,2013-03-24 11:10:00,
2013-03-24 06:15:00,18.2,16.3,30.13,NW,308,5.0,8.4,92,0.00,,CLR,0.00,VWS V14.01,2013-03-24 11:15:00,
2013-03-24 06:20:00,18.2,16.3,30.13,NW,311,3.0,7.3,92,0.00,,,0.00,VWS V14.01,2013-03-24 11:20:00,
2013-03-24 06:30:00,18.1,16.2,30.13,WNW,292,2.0,7.3,92,0.00,,,0.00,VWS V14.01,2013-03-24 11:30:00,
2013-03-24 06:35:00,18.1,16.2,30.12,WNW,303,2.0,6.3,92,0.00,,,0.00,VWS V14.01,2013-03-24 11:35:00,
2013-03-24 06:40:00,18.0,16.1,30.12,NW,316,2.0,5.2,92,0.00,,,0.00,VWS V14.01,2013-03-24 11:40:00,
2013-03-24 06:45:00,18.0,16.1,30.13,NW,311,4.0,6.3,92,0.00,,,0.00,VWS V14.01,2013-03-24 11:45:00,
2013-03-24 06:50:00,17.9,16.0,30.13,NW,323,4.0,6.3,92,0.00,,,0.00,VWS V14.01,2013-03-24 11:50:00,
2013-03-24 06:55:00,17.8,15.9,30.13,NNW,327,1.0,4.2,92,0.00,,,0.00,VWS V14.01,2013-03-24 11:55:00,
2013-03-24 07:00:00,17.7,15.8,30.13,NW,308,3.0,5.2,92,0.00,,,0.00,VWS V14.01,2013-03-24 12:00:00,
2013-03-24 07:05:00,17.6,15.7,30.12,WNW,303,7.0,8.4,92,0.00,,,0.00,VWS V14.01,2013-03-24 12:05:00,
2013-03-24 07:10:00,17.5,15.6,30.12,NW,320,3.0,7.3,92,0.00,,,0.00,VWS V14.01,2013-03-24 12:10:00,
2013-03-24 07:20:00,17.3,15.4,30.12,NW,308,4.0,8.4,92,0.00,,,0.00,VWS V14.01,2013-03-24 12:20:00,
2013-03-24 07:30:00,17.1,15.2,30.12,NW,308,7.0,8.4,92,0.00,,,0.00,VWS V14.01,2013-03-24 12:30:00,
2013-03-24 07:35:00,17.1,15.2,30.12,NW,314,3.0,8.4,92,0.00,,,0.00,VWS V14.01,2013-03-24 12:35:00,
2013-03-24 07:40:00,17.1,15.2,30.12,NW,314,5.0,8.4,92,0.00,,,0.00,VWS V14.01,2013-03-24 12:40:00,
2013-03-24 07:45:00,17.0,15.1,30.12,NW,309,4.0,8.4,92,0.00,,,0.00,VWS V14.01,2013-03-24 12:45:00,
2013-03-24 07:50:00,17.0,15.1,30.12,NW,305,4.0,5.2,92,0.00,,,0.00,VWS V14.01,2013-03-24 12:50:00,
2013-03-24 08:00:00,16.9,15.0,30.12,NW,311,6.0,8.4,92,0.00,,,0.00,VWS V14.01,2013-03-24 13:00:00,
2013-03-24 08:10:00,16.9,15.0,30.13,NW,312,4.0,6.3,92,0.00,,CLR,0.00,VWS V14.01,2013-03-24 13:10:00,
2013-03-24 08:15:00,16.9,15.0,30.12,NW,316,4.0,9.4,92,0.00,,CLR,0.00,VWS V14.01,2013-03-24 13:15:00,
2013-03-24 08:20:00,17.0,15.1,30.12,NW,306,5.0,8.4,92,0.00,,CLR,0.00,VWS V14.01,2013-03-24 13:20:00,
2013-03-24 08:25:00,17.0,15.1,30.12,NW,310,7.0,7.3,92,0.00,,CLR,0.00,VWS V14.01,2013-03-24 13:25:00,
2013-03-24 08:30:00,17.1,15.2,30.12,NW,315,4.0,7.3,92,0.00,,CLR,0.00,VWS V14.01,2013-03-24 13:30:00,
2013-03-24 08:35:00,17.2,15.3,30.12,NW,304,5.0,7.3,92,0.00,,CLR,0.00,VWS V14.01,2013-03-24 13:35:00,
2013-03-24 08:40:00,17.3,15.4,30.12,NW,310,5.0,8.4,92,0.00,,CLR,0.00,VWS V14.01,2013-03-24 13:40:00,
2013-03-24 08:50:00,17.6,15.7,30.12,NW,306,4.0,7.3,92,0.00,,BKN013,0.00,VWS V14.01,2013-03-24 13:50:00,
2013-03-24 08:55:00,17.6,15.7,30.12,WNW,300,5.0,7.3,92,0.00,,BKN013,0.00,VWS V14.01,2013-03-24 13:55:00,
2013-03-24 09:00:00,17.6,15.7,30.11,NW,305,4.0,7.3,92,0.00,,BKN013,0.00,VWS V14.01,2013-03-24 14:00:00,
2013-03-24 09:10:00,18.0,16.1,30.11,NW,323,4.0,5.2,92,0.00,,,0.00,VWS V14.01,2013-03-24 14:10:00,
2013-03-24 09:15:00,18.2,16.5,30.11,NW,315,4.0,5.2,93,0.00,,,0.00,VWS V14.01,2013-03-24 14:15:00,
2013-03-24 09:20:00,18.3,16.4,30.11,NW,309,4.0,6.3,92,0.00,,,0.00,VWS V14.01,2013-03-24 14:20:00,
2013-03-24 09:30:00,18.6,16.9,30.11,NW,310,5.0,5.2,93,0.00,,,0.00,VWS V14.01,2013-03-24 14:30:00,
2013-03-24 09:35:00,18.8,16.9,30.11,NW,316,4.0,5.2,92,0.00,,,0.00,VWS V14.01,2013-03-24 14:35:00,
2013-03-24 09:45:00,18.9,17.0,30.11,NW,324,3.0,7.3,92,0.00,,,0.00,VWS V14.01,2013-03-24 14:45:00,
2013-03-24 09:50:00,19.1,17.4,30.11,NW,304,3.0,5.2,93,0.00,,,0.00,VWS V14.01,2013-03-24 14:50:00,
2013-03-24 09:55:00,19.3,17.4,30.11,NW,317,4.0,7.3,92,0.00,,,0.00,VWS V14.01,2013-03-24 14:55:00,
2013-03-24 10:00:00,19.5,17.6,30.11,NW,309,3.0,5.2,92,0.00,,,0.00,VWS V14.01,2013-03-24 15:00:00,
2013-03-24 10:05:00,19.8,18.1,30.11,NW,326,3.0,5.2,93,0.00,,,0.00,VWS V14.01,2013-03-24 15:05:00,
2013-03-24 10:10:00,19.8,17.9,30.11,NW,314,3.0,7.3,92,0.00,,,0.00,VWS V14.01,2013-03-24 15:10:00,
2013-03-24 10:20:00,19.9,18.0,30.11,NW,316,3.0,7.3,92,0.00,,,0.00,VWS V14.01,2013-03-24 15:20:00,
2013-03-24 10:30:00,20.3,18.6,30.11,NW,309,5.0,5.2,93,0.00,,,0.00,VWS V14.01,2013-03-24 15:30:00,
2013-03-24 10:40:00,20.8,18.9,30.11,NW,321,2.0,5.2,92,0.00,,,0.00,VWS V14.01,2013-03-24 15:40:00,
2013-03-24 10:45:00,21.0,19.0,30.11,NW,307,4.0,5.2,92,0.00,,,0.00,VWS V14.01,2013-03-24 15:45:00,
2013-03-24 10:50:00,21.2,19.2,30.10,NW,313,3.0,5.2,92,0.00,,,0.00,VWS V14.01,2013-03-24 15:50:00,
2013-03-24 10:55:00,21.4,19.4,30.10,NW,313,4.0,5.2,92,0.00,,,0.00,VWS V14.01,2013-03-24 15:55:00,
2013-03-24 11:00:00,21.5,19.5,30.10,NW,311,5.0,5.2,92,0.00,,,0.00,VWS V14.01,2013-03-24 16:00:00,
2013-03-24 11:05:00,21.8,19.8,30.10,NW,308,3.0,5.2,92,0.00,,,0.00,VWS V14.01,2013-03-24 16:05:00,
2013-03-24 11:10:00,22.0,20.0,30.10,NW,313,4.0,7.3,92,0.00,,,0.00,VWS V14.01,2013-03-24 16:10:00,
2013-03-24 11:20:00,22.4,20.4,30.10,NW,304,5.0,5.2,92,0.00,,,0.00,VWS V14.01,2013-03-24 16:20:00,
2013-03-24 11:25:00,22.6,20.6,30.10,NW,307,4.0,7.3,92,0.00,,,0.00,VWS V14.01,2013-03-24 16:25:00,
2013-03-24 11:30:00,22.9,20.9,30.10,NW,308,4.0,8.4,92,0.00,,,0.00,VWS V14.01,2013-03-24 16:30:00,
2013-03-24 11:35:00,23.1,21.1,30.10,NW,311,5.0,7.3,92,0.00,,,0.00,VWS V14.01,2013-03-24 16:35:00,
2013-03-24 11:45:00,23.5,21.3,30.10,NW,316,4.0,7.3,91,0.00,,,0.00,VWS V14.01,2013-03-24 16:45:00,
2013-03-24 11:50:00,23.8,21.6,30.10,NW,315,4.0,8.4,91,0.00,,,0.00,VWS V14.01,2013-03-24 16:50:00,
2013-03-24 11:55:00,23.8,21.6,30.10,NW,316,5.0,7.3,91,0.00,,,0.00,VWS V14.01,2013-03-24 16:55:00,
2013-03-24 12:00:00,23.9,21.7,30.10,NW,310,4.0,7.3,91,0.00,,,0.00,VWS V14.01,2013-03-24 17:00:00,
2013-03-24 12:10:00,24.5,22.5,30.10,NW,318,3.0,8.4,92,0.01,,,0.01,VWS V14.01,2013-03-24 17:10:00,
2013-03-24 12:15:00,24.8,22.8,30.10,NW,307,4.0,7.3,92,0.01,,,0.01,VWS V14.01,2013-03-24 17:15:00,
2013-03-24 12:20:00,24.8,22.8,30.10,NW,324,4.0,6.3,92,0.01,,,0.01,VWS V14.01,2013-03-24 17:20:00,
2013-03-24 12:25:00,24.8,22.8,30.10,NW,311,4.0,7.3,92,0.01,,,0.01,VWS V14.01,2013-03-24 17:25:00,
2013-03-24 12:30:00,25.1,23.1,30.10,NW,313,4.0,5.2,92,0.01,,,0.01,VWS V14.01,2013-03-24 17:30:00,
2013-03-24 12:35:00,25.2,23.2,30.10,NW,311,2.0,6.3,92,0.01,,,0.01,VWS V14.01,2013-03-24 17:35:00,
2013-03-24 12:40:00,25.5,23.5,30.10,NW,306,4.0,7.3,92,0.01,,,0.01,VWS V14.01,2013-03-24 17:40:00,
2013-03-24 12:45:00,25.6,23.6,30.10,NW,321,3.0,7.3,92,0.01,,,0.01,VWS V14.01,2013-03-24 17:45:00,
2013-03-24 12:50:00,25.9,23.9,30.10,NW,311,4.0,5.2,92,0.01,,,0.01,VWS V14.01,2013-03-24 17:50:00,
2013-03-24 12:55:00,26.1,24.1,30.10,NW,315,4.0,5.2,92,0.02,,,0.02,VWS V14.01,2013-03-24 17:55:00,
2013-03-24 13:00:00,26.3,24.3,30.10,NW,311,3.0,6.3,92,0.02,,,0.02,VWS V14.01,2013-03-24 18:00:00,
2013-03-24 13:10:00,26.5,24.8,30.10,NW,313,5.0,7.3,93,0.02,,,0.02,VWS V14.01,2013-03-24 18:10:00,
2013-03-24 13:20:00,26.8,24.8,30.09,NW,306,4.0,7.3,92,0.01,,,0.02,VWS V14.01,2013-03-24 18:20:00,
2013-03-24 13:25:00,27.1,25.4,30.09,NW,307,7.0,7.3,93,0.01,,,0.02,VWS V14.01,2013-03-24 18:25:00,
2013-03-24 13:30:00,27.1,25.4,30.09,NW,319,3.0,8.4,93,0.01,,,0.02,VWS V14.01,2013-03-24 18:30:00,
2013-03-24 13:35:00,27.4,25.6,30.09,NW,316,4.0,7.3,93,0.01,,,0.02,VWS V14.01,2013-03-24 18:35:00,
2013-03-24 13:40:00,27.5,25.5,30.09,NW,314,5.0,8.4,92,0.01,,,0.02,VWS V14.01,2013-03-24 18:40:00,
2013-03-24 13:45:00,27.6,25.6,30.09,NW,309,4.0,8.4,92,0.01,,,0.02,VWS V14.01,2013-03-24 18:45:00,
2013-03-24 13:50:00,27.7,25.7,30.09,NW,316,6.0,8.4,92,0.01,,,0.02,VWS V14.01,2013-03-24 18:50:00,
2013-03-24 13:55:00,27.8,26.0,30.08,NW,309,8.0,8.4,93,0.01,,,0.02,VWS V14.01,2013-03-24 18:55:00,
2013-03-24 14:00:00,27.7,25.9,30.08,NW,308,7.0,8.4,93,0.00,,,0.02,VWS V14.01,2013-03-24 19:00:00,
2013-03-24 14:10:00,28.0,26.2,30.08,NW,317,4.0,9.4,93,0.00,,,0.02,VWS V14.01,2013-03-24 19:10:00,
2013-03-24 14:15:00,28.3,26.5,30.08,NW,317,6.0,9.4,93,0.00,,,0.02,VWS V14.01,2013-03-24 19:15:00,
2013-03-24 14:20:00,28.2,26.4,30.08,NW,306,8.0,9.4,93,0.00,,,0.02,VWS V14.01,2013-03-24 19:20:00,
2013-03-24 14:25:00,28.3,26.5,30.08,NW,313,6.0,9.4,93,0.00,,,0.02,VWS V14.01,2013-03-24 19:25:00,
2013-03-24 14:30:00,28.5,26.7,30.08,NW,316,5.0,9.4,93,0.00,,,0.02,VWS V14.01,2013-03-24 19:30:00,
2013-03-24 14:35:00,28.8,27.0,30.07,NW,306,7.0,8.4,93,0.00,,,0.02,VWS V14.01,2013-03-24 19:35:00,
2013-03-24 14:40:00,28.9,27.1,30.08,NW,308,7.0,8.4,93,0.00,,,0.02,VWS V14.01,2013-03-24 19:40:00,
2013-03-24 14:45:00,29.0,27.2,30.07,NW,310,7.0,9.4,93,0.00,,,0.02,VWS V14.01,2013-03-24 19:45:00,
2013-03-24 14:50:00,29.2,27.4,30.08,NW,308,7.0,9.4,93,0.00,,,0.02,VWS V14.01,2013-03-24 19:50:00,
2013-03-24 14:55:00,29.4,27.6,30.07,NW,309,5.0,8.4,93,0.00,,,0.02,VWS V14.01,2013-03-24 19:55:00,
2013-03-24 15:00:00,29.7,27.9,30.07,NW,326,4.0,8.4,93,0.00,,,0.02,VWS V14.01,2013-03-24 20:00:00,
2013-03-24 15:10:00,29.5,27.7,30.07,NW,318,8.0,9.4,93,0.00,,SCT016,0.02,VWS V14.01,2013-03-24 20:10:00,
2013-03-24 15:15:00,29.5,28.0,30.07,NW,304,8.0,9.4,94,0.00,,SCT016,0.02,VWS V14.01,2013-03-24 20:15:00,
2013-03-24 15:20:00,29.6,28.1,30.07,NW,323,8.0,10.5,94,0.00,,SCT016,0.02,VWS V14.01,2013-03-24 20:20:00,
2013-03-24 15:25:00,29.7,28.2,30.07,NW,312,4.0,9.4,94,0.00,,CLR,0.02,VWS V14.01,2013-03-24 20:25:00,
2013-03-24 15:30:00,29.8,28.3,30.07,NW,308,5.0,8.4,94,0.00,,CLR,0.02,VWS V14.01,2013-03-24 20:30:00,
2013-03-24 15:35:00,30.3,28.8,30.06,North,360,5.0,8.4,94,0.00,,CLR,0.02,VWS V14.01,2013-03-24 20:35:00,
2013-03-24 15:40:00,30.7,29.2,30.06,NNW,337,8.0,11.5,94,0.00,,CLR,0.02,VWS V14.01,2013-03-24 20:40:00,
2013-03-24 15:45:00,30.6,28.8,30.06,NNW,339,4.0,12.6,93,0.00,,CLR,0.02,VWS V14.01,2013-03-24 20:45:00,
2013-03-24 15:50:00,30.7,28.9,30.06,North,355,9.0,11.5,93,0.00,,CLR,0.02,VWS V14.01,2013-03-24 20:50:00,
2013-03-24 15:55:00,30.7,28.9,30.06,NNW,345,6.0,12.6,93,0.00,,CLR,0.02,VWS V14.01,2013-03-24 20:55:00,
2013-03-24 16:00:00,30.8,29.0,30.06,NNW,333,6.0,10.5,93,0.00,,CLR,0.02,VWS V14.01,2013-03-24 21:00:00,
2013-03-24 16:05:00,31.0,29.2,30.07,NNW,333,9.0,9.4,93,0.00,,SCT033,0.02,VWS V14.01,2013-03-24 21:05:00,
2013-03-24 16:10:00,31.0,29.2,30.06,NNW,345,9.0,9.4,93,0.00,,SCT033,0.02,VWS V14.01,2013-03-24 21:10:00,
2013-03-24 16:15:00,31.0,29.0,30.06,NW,326,5.0,10.5,92,0.00,,SCT033,0.02,VWS V14.01,2013-03-24 21:15:00,
2013-03-24 16:20:00,31.0,28.7,30.06,NW,326,5.0,10.5,91,0.00,,SCT033,0.02,VWS V14.01,2013-03-24 21:20:00,
2013-03-24 16:25:00,31.1,28.8,30.07,NNW,331,8.0,9.4,91,0.00,,BKN035,0.02,VWS V14.01,2013-03-24 21:25:00,
2013-03-24 16:30:00,31.2,28.9,30.07,NW,319,5.0,8.4,91,0.00,,BKN035,0.02,VWS V14.01,2013-03-24 21:30:00,
2013-03-24 16:35:00,31.3,29.0,30.06,NW,325,4.0,9.4,91,0.00,,BKN035,0.02,VWS V14.01,2013-03-24 21:35:00,
2013-03-24 16:40:00,31.4,28.8,30.07,NNW,338,5.0,9.4,90,0.00,,BKN035,0.02,VWS V14.01,2013-03-24 21:40:00,
2013-03-24 16:45:00,31.5,28.1,30.06,North,355,10.0,13.6,87,0.00,,BKN035,0.02,VWS V14.01,2013-03-24 21:45:00,
2013-03-24 16:50:00,31.4,27.1,30.07,NNW,348,11.0,15.7,84,0.00,,BKN035,0.02,VWS V14.01,2013-03-24 21:50:00,
2013-03-24 16:55:00,31.2,26.6,30.07,NNW,340,8.0,13.6,83,0.00,,BKN035,0.02,VWS V14.01,2013-03-24 21:55:00,
2013-03-24 17:00:00,31.2,26.6,30.07,North,5,8.0,12.6,83,0.00,,BKN035,0.02,VWS V14.01,2013-03-24 22:00:00,
2013-03-24 17:05:00,31.3,26.8,30.07,North,355,13.0,14.7,83,0.00,,OVC037,0.02,VWS V14.01,2013-03-24 22:05:00,
2013-03-24 17:10:00,31.3,26.8,30.07,NNW,342,6.0,13.6,83,0.00,,OVC037,0.02,VWS V14.01,2013-03-24 22:10:00,
2013-03-24 17:15:00,31.3,27.0,30.07,NNW,343,8.0,12.6,84,0.00,,OVC037,0.02,VWS V14.01,2013-03-24 22:15:00,
2013-03-24 17:20:00,31.3,26.8,30.07,NNW,337,5.0,10.5,83,0.00,,OVC037,0.02,VWS V14.01,2013-03-24 22:20:00,
2013-03-24 17:25:00,31.3,27.0,30.07,NNW,337,4.0,8.4,84,0.00,,OVC039,0.02,VWS V14.01,2013-03-24 22:25:00,
2013-03-24 17:30:00,31.2,27.2,30.08,NW,304,5.0,8.4,85,0.00,,OVC039,0.02,VWS V14.01,2013-03-24 22:30:00,
2013-03-24 17:35:00,31.1,27.1,30.08,NNW,345,8.0,8.4,85,0.00,,OVC039,0.02,VWS V14.01,2013-03-24 22:35:00,
2013-03-24 17:40:00,31.0,27.0,30.08,NNW,329,4.0,8.4,85,0.00,,OVC039,0.02,VWS V14.01,2013-03-24 22:40:00,
2013-03-24 17:45:00,31.0,27.0,30.08,NNW,331,4.0,8.4,85,0.00,,OVC039,0.02,VWS V14.01,2013-03-24 22:45:00,
2013-03-24 17:50:00,30.9,26.9,30.08,NNW,341,6.0,8.4,85,0.00,,OVC039,0.02,VWS V14.01,2013-03-24 22:50:00,
2013-03-24 17:55:00,31.0,27.0,30.08,NW,326,6.0,8.4,85,0.00,,OVC039,0.02,VWS V14.01,2013-03-24 22:55:00,
2013-03-24 18:00:00,31.0,27.6,30.08,NW,321,5.0,8.4,87,0.00,,OVC039,0.02,VWS V14.01,2013-03-24 23:00:00,
2013-03-24 18:10:00,30.8,28.0,30.08,NW,311,6.0,9.4,89,0.00,,BKN043,0.02,VWS V14.01,2013-03-24 23:10:00,
2013-03-24 18:15:00,30.7,28.1,30.08,NW,308,7.0,9.4,90,0.00,,BKN043,0.02,VWS V14.01,2013-03-24 23:15:00,
2013-03-24 18:20:00,30.6,28.3,30.08,NW,308,9.0,10.5,91,0.00,,BKN043,0.02,VWS V14.01,2013-03-24 23:20:00,
2013-03-24 18:25:00,30.5,28.5,30.08,NW,317,6.0,10.5,92,0.00,,SCT048,0.02,VWS V14.01,2013-03-24 23:25:00,
2013-03-24 18:30:00,30.5,28.5,30.08,NW,317,8.0,9.4,92,0.00,,SCT048,0.02,VWS V14.01,2013-03-24 23:30:00,
2013-03-24 18:35:00,30.4,28.4,30.08,NW,316,6.0,10.5,92,0.00,,SCT048,0.02,VWS V14.01,2013-03-24 23:35:00,
2013-03-24 18:40:00,30.3,28.3,30.08,NW,315,5.0,10.5,92,0.00,,SCT048,0.02,VWS V14.01,2013-03-24 23:40:00,
2013-03-24 18:45:00,30.2,28.4,30.08,NW,310,5.0,8.4,93,0.00,,SCT050,0.02,VWS V14.01,2013-03-24 23:45:00,
2013-03-24 18:50:00,29.9,28.1,30.08,NW,315,6.0,9.4,93,0.00,,SCT050,0.02,VWS V14.01,2013-03-24 23:50:00,
2013-03-24 18:55:00,29.8,28.3,30.09,NW,307,5.0,9.4,94,0.00,,SCT050,0.02,VWS V14.01,2013-03-24 23:55:00,
2013-03-24 19:00:00,29.8,28.3,30.09,NW,318,5.0,8.4,94,0.00,,SCT050,0.02,VWS V14.01,2013-03-25 00:00:00,
2013-03-24 19:10:00,29.9,28.4,30.09,NW,312,10.0,12.6,94,0.00,,BKN055,0.02,VWS V14.01,2013-03-25 00:10:00,
2013-03-24 19:15:00,29.9,28.4,30.09,NNW,329,5.0,10.5,94,0.00,,BKN055,0.02,VWS V14.01,2013-03-25 00:15:00,
2013-03-24 19:25:00,29.9,28.4,30.09,NW,316,5.0,10.5,94,0.00,,SCT050,0.02,VWS V14.01,2013-03-25 00:25:00,
2013-03-24 19:30:00,29.7,28.2,30.09,NW,308,8.0,11.5,94,0.00,,SCT050,0.02,VWS V14.01,2013-03-25 00:30:00,
2013-03-24 19:35:00,29.7,27.9,30.10,NW,306,5.0,9.4,93,0.00,,SCT050,0.02,VWS V14.01,2013-03-25 00:35:00,
2013-03-24 19:40:00,29.6,27.8,30.10,NW,313,5.0,9.4,93,0.00,,SCT050,0.02,VWS V14.01,2013-03-25 00:40:00,
2013-03-24 19:45:00,29.5,27.5,30.10,NW,321,6.0,9.4,92,0.00,,BKN050,0.02,VWS V14.01,2013-03-25 00:45:00,
2013-03-24 19:50:00,29.4,27.1,30.10,NW,322,5.0,9.4,91,0.00,,BKN050,0.02,VWS V14.01,2013-03-25 00:50:00,
2013-03-24 19:55:00,29.3,27.0,30.10,NW,314,6.0,9.4,91,0.00,,BKN050,0.02,VWS V14.01,2013-03-25 00:55:00,
2013-03-24 20:00:00,29.0,26.4,30.10,NW,317,5.0,9.4,90,0.00,,BKN050,0.02,VWS V14.01,2013-03-25 01:00:00,
2013-03-24 20:05:00,28.8,26.0,30.10,NW,324,4.0,10.5,89,0.00,,,0.02,VWS V14.01,2013-03-25 01:05:00,
2013-03-24 20:10:00,28.6,25.8,30.10,NW,313,4.0,9.4,89,0.00,,,0.02,VWS V14.01,2013-03-25 01:10:00,
2013-03-24 20:15:00,28.4,25.9,30.10,NW,323,6.0,8.4,90,0.00,,,0.02,VWS V14.01,2013-03-25 01:15:00,
2013-03-24 20:20:00,28.3,25.8,30.10,NW,312,6.0,10.5,90,0.00,,,0.02,VWS V14.01,2013-03-25 01:20:00,
2013-03-24 20:25:00,28.2,25.6,30.10,NW,311,9.0,10.5,90,0.00,,CLR,0.02,VWS V14.01,2013-03-25 01:25:00,
2013-03-24 20:30:00,28.1,25.5,30.11,NW,323,5.0,10.5,90,0.00,,CLR,0.02,VWS V14.01,2013-03-25 01:30:00,
2013-03-24 20:35:00,27.9,25.1,30.11,NW,306,9.0,12.6,89,0.00,,CLR,0.02,VWS V14.01,2013-03-25 01:35:00,
2013-03-24 20:40:00,27.8,25.0,30.11,NNW,331,9.0,12.6,89,0.00,,CLR,0.02,VWS V14.01,2013-03-25 01:40:00,
2013-03-24 20:45:00,27.6,24.8,30.11,NW,310,10.0,11.5,89,0.00,,CLR,0.02,VWS V14.01,2013-03-25 01:45:00,
2013-03-24 20:50:00,27.4,24.9,30.11,WNW,301,7.0,11.5,90,0.00,,CLR,0.02,VWS V14.01,2013-03-25 01:50:00,
2013-03-24 20:55:00,27.3,24.8,30.11,NW,317,6.0,10.5,90,0.00,,CLR,0.02,VWS V14.01,2013-03-25 01:55:00,
2013-03-24 21:05:00,27.2,24.7,30.12,NW,312,5.0,9.4,90,0.00,,CLR,0.02,VWS V14.01,2013-03-25 02:05:00,
2013-03-24 21:15:00,27.1,24.8,30.12,NNW,339,8.0,10.5,91,0.00,,CLR,0.02,VWS V14.01,2013-03-25 02:15:00,
2013-03-24 21:20:00,27.1,24.8,30.12,NW,309,7.0,10.5,91,0.00,,CLR,0.02,VWS V14.01,2013-03-25 02:20:00,
2013-03-24 21:25:00,27.1,24.8,30.12,NW,315,8.0,10.5,91,0.00,,SCT021,0.02,VWS V14.01,2013-03-25 02:25:00,
2013-03-24 21:30:00,27.0,24.7,30.12,NW,311,6.0,10.5,91,0.00,,SCT021,0.02,VWS V14.01,2013-03-25 02:30:00,
2013-03-24 21:35:00,27.0,24.7,30.12,NNW,329,8.0,10.5,91,0.00,,SCT021,0.02,VWS V14.01,2013-03-25 02:35:00,
2013-03-24 21:40:00,26.9,24.6,30.12,NW,323,4.0,10.5,91,0.00,,SCT021,0.02,VWS V14.01,2013-03-25 02:40:00,
2013-03-24 21:45:00,26.8,24.5,30.12,NW,317,5.0,9.4,91,0.00,,SCT021,0.02,VWS V14.01,2013-03-25 02:45:00,
2013-03-24 21:50:00,26.6,24.6,30.12,NW,309,10.0,10.5,92,0.00,,SCT021,0.02,VWS V14.01,2013-03-25 02:50:00,
2013-03-24 21:55:00,26.5,24.5,30.12,WNW,302,8.0,10.5,92,0.00,,SCT021,0.02,VWS V14.01,2013-03-25 02:55:00,
2013-03-24 22:00:00,26.5,24.5,30.13,WNW,302,8.0,8.4,92,0.00,,SCT021,0.02,VWS V14.01,2013-03-25 03:00:00,
2013-03-24 22:10:00,26.4,24.4,30.12,NW,317,6.0,9.4,92,0.00,,CLR,0.02,VWS V14.01,2013-03-25 03:10:00,
2013-03-24 22:15:00,26.4,24.4,30.12,NW,317,5.0,9.4,92,0.00,,CLR,0.02,VWS V14.01,2013-03-25 03:15:00,
2013-03-24 22:20:00,26.4,24.4,30.13,NW,317,6.0,9.4,92,0.00,,CLR,0.02,VWS V14.01,2013-03-25 03:20:00,
2013-03-24 22:25:00,26.3,24.3,30.13,NW,315,6.0,10.5,92,0.00,,CLR,0.02,VWS V14.01,2013-03-25 03:25:00,
2013-03-24 22:30:00,26.3,24.3,30.13,NW,310,10.0,11.5,92,0.00,,CLR,0.02,VWS V14.01,2013-03-25 03:30:00,
2013-03-24 22:35:00,26.3,24.3,30.13,NW,317,5.0,11.5,92,0.00,,CLR,0.02,VWS V14.01,2013-03-25 03:35:00,
2013-03-24 22:40:00,26.2,24.2,30.12,NW,321,9.0,11.5,92,0.00,,CLR,0.02,VWS V14.01,2013-03-25 03:40:00,
2013-03-24 22:45:00,26.2,24.2,30.12,NW,309,8.0,11.5,92,0.00,,CLR,0.02,VWS V14.01,2013-03-25 03:45:00,
2013-03-24 22:50:00,26.2,24.2,30.12,NW,311,10.0,12.6,92,0.00,,CLR,0.02,VWS V14.01,2013-03-25 03:50:00,
2013-03-24 22:55:00,26.2,24.2,30.12,NW,304,10.0,12.6,92,0.00,,CLR,0.02,VWS V14.01,2013-03-25 03:55:00,
2013-03-24 23:00:00,26.1,24.1,30.13,NW,309,9.0,12.6,92,0.00,,CLR,0.02,VWS V14.01,2013-03-25 04:00:00,
2013-03-24 23:05:00,26.1,24.1,30.13,NW,304,8.0,11.5,92,0.00,,CLR,0.02,VWS V14.01,2013-03-25 04:05:00,
2013-03-24 23:10:00,26.1,24.1,30.13,NW,315,9.0,11.5,92,0.00,,CLR,0.02,VWS V14.01,2013-03-25 04:10:00,
2013-03-24 23:15:00,26.0,24.0,30.13,NW,304,8.0,10.5,92,0.00,,CLR,0.02,VWS V14.01,2013-03-25 04:15:00,
2013-03-24 23:20:00,26.0,24.0,30.13,NW,307,9.0,10.5,92,0.00,,CLR,0.02,VWS V14.01,2013-03-25 04:20:00,
2013-03-24 23:25:00,26.0,24.0,30.13,NW,318,5.0,9.4,92,0.00,,CLR,0.02,VWS V14.01,2013-03-25 04:25:00,
2013-03-24 23:30:00,26.0,24.0,30.13,NW,313,5.0,9.4,92,0.00,,CLR,0.02,VWS V14.01,2013-03-25 04:30:00,
2013-03-24 23:35:00,26.0,24.0,30.13,NW,315,6.0,10.5,92,0.00,,CLR,0.02,VWS V14.01,2013-03-25 04:35:00,
2013-03-24 23:40:00,26.0,24.0,30.13,NW,320,6.0,9.4,92,0.00,,CLR,0.02,VWS V14.01,2013-03-25 04:40:00,
2013-03-24 23:45:00,26.0,24.3,30.13,NW,313,6.0,8.4,93,0.00,,,0.02,VWS V14.01,2013-03-25 04:45:00,
2013-03-24 23:50:00,25.8,24.1,30.13,NW,313,6.0,11.5,93,0.00,,,0.02,VWS V14.01,2013-03-25 04:50:00,
2013-03-24 23:55:00,25.7,24.0,30.13,NW,319,4.0,9.4,93,0.00,,,0.02,VWS V14.01,2013-03-25 04:55:00,